Powrót do katalogu

GORIZONT 6

AktywnyŁącznośćGEO
NORAD 13624·PAYLOAD·🇷🇺 Russia

Wystrzelony Oct 20, 1982 z Baikonur Cosmodrome

Loading…

TLE

ŚwieżeSource: Space-Track

Epoka: Sep 14, 2026, 13:16 UTC

1 13624U 82103A   26257.55322800  .00000117  00000-0  00000-0 0  9996
2 13624   7.1514 301.3213 0003164 336.6703 120.7013  1.00336941121848

Śledź GORIZONT 6 w czasie rzeczywistym z AllMySat

Download on the App Store